EW1029 Weather Reports


Display with metric or nautical units.
time (UTC)temp
F
wind
direction
speed
MPH
gust
MPH
rain 1hr
in
rain 24hr
in
rain mn
in
humidity
%
barometer
mb
20190425120109 57 360 0.0 0.0 0.00 0.02 0.01 100 1012.9
20190425114558 57 360 0.0 0.0 0.00 0.02 0.01 100 1012.6
20190425113037 57 360 0.0 0.0 0.00 0.02 0.01 100 1012.7
20190425111538 57 360 0.0 0.0 0.00 0.02 0.01 100 1012.3
20190425110035 57 360 0.0 0.0 0.00 0.02 0.01 100 1012.3
20190425104521 58 360 0.0 0.0 0.00 0.02 0.01 100 1012.1
20190425103032 58 360 0.0 7.0 0.00 0.02 0.01 100 1011.9
20190425100135 54 360 0.0 0.0 0.00 0.02 0.01 100 1011.7
20190425094704 54 360 0.0 0.0 0.00 0.02 0.01 100 1012.3
20190425093215 54 360 0.0 0.0 0.00 0.02 0.01 100 1012.5
20190425090112 53 360 0.0 0.0 0.00 0.02 0.01 100 1012.3
20190425084614 53 360 0.0 0.0 0.00 0.02 0.01 100 1012.2
20190425083054 53 360 0.0 0.0 0.00 0.02 0.01 100 1012.2
20190425081535 53 360 0.0 0.0 0.00 0.02 0.01 100 1012.3
20190425080046 53 360 0.0 0.0 0.00 0.02 0.01 100 1012.3
20190425074527 52 360 0.0 0.0 0.00 0.02 0.01 100 1012.3
20190425073035 52 360 0.0 0.0 0.00 0.02 0.01 100 1012.3
20190425071515 52 360 0.0 0.0 0.00 0.02 0.01 100 1012.4
20190425070008 52 360 0.0 0.0 0.00 0.02 0.01 100 1012.5
20190425063244 53 360 0.0 0.0 0.01 0.02 0.01 100 1012.5
20190425061718 53 360 0.0 0.0 0.01 0.02 0.01 100 1012.6
20190425060145 52 360 0.0 0.0 0.01 0.02 0.01 100 1012.7
20190425054617 53 360 0.0 0.0 0.01 0.02 0.01 100 1012.7
20190425053155 53 360 0.0 0.0 0.00 0.01 0.00 100 1012.9
20190425051546 53 360 0.0 0.0 0.00 0.01 0.00 100 1012.9
20190425050134 53 360 0.0 0.0 0.00 0.01 0.00 100 1013.0
20190425044618 53 360 0.0 0.0 0.00 0.01 0.00 100 1012.8
20190425043118 53 360 0.0 0.0 0.00 0.01 0.00 100 1012.6
20190425041553 54 360 0.0 0.0 0.00 0.01 0.00 100 1012.6
20190425040024 54 360 0.0 0.0 0.00 0.01 0.00 100 1012.5
20190425034518 54 360 0.0 0.0 0.00 0.01 0.01 100 1012.7
20190425033005 54 360 0.0 0.0 0.00 0.01 0.01 100 1012.6
20190425031644 55 360 0.0 0.0 0.00 0.01 0.01 100 1012.7
20190425030142 56 360 0.0 0.0 0.00 0.01 0.01 100 1012.7
20190425024704 56 360 0.0 0.0 0.00 0.01 0.01 100 1012.5
20190425023129 57 360 0.0 0.0 0.00 0.01 0.01 100 1012.2
20190425021601 58 360 0.0 0.0 0.00 0.01 0.01 100 1012.4
20190425014553 61 360 0.0 0.0 0.00 0.01 0.01 100 1011.9
20190425013041 63 360 0.0 0.0 0.00 0.01 0.01 10 1011.6
20190425011630 66 360 0.0 0.0 0.00 0.01 0.01 34 1011.6
20190425010058 69 360 0.0 0.0 0.00 0.01 0.01 42 1011.8
20190425004535 71 360 0.0 0.0 0.00 0.01 0.01 39 1012.1
20190425003023 72 360 0.0 0.0 0.00 0.01 0.01 38 1011.7
20190425001529 73 360 0.0 1.0 0.00 0.01 0.01 38 1011.2
20190425000013 74 360 0.0 5.0 0.00 0.01 0.01 36 1011.0
20190424234646 76 360 0.0 0.0 0.00 0.01 0.01 36 1010.9
20190424233117 78 360 0.0 0.0 0.00 0.01 0.01 31 1010.8
20190424231641 79 360 0.0 0.0 0.00 0.01 0.01 31 1010.8
20190424230200 80 360 0.0 5.0 0.00 0.01 0.01 33 1010.8
20190424224652 79 360 0.0 0.0 0.00 0.02 0.01 31 1010.7
20190424223109 80 360 0.0 3.0 0.00 0.02 0.01 30 1010.7
20190424221623 80 360 0.0 8.0 0.00 0.02 0.01 30 1010.8
20190424220135 80 360 0.0 8.0 0.00 0.02 0.01 31 1010.8
20190424214533 80 360 0.0 6.0 0.00 0.02 0.01 32 1010.8
20190424213042 81 360 1.0 8.0 0.00 0.02 0.01 31 1010.8
20190424211527 80 360 2.0 8.0 0.00 0.02 0.01 30 1010.9
20190424210030 80 360 0.0 7.0 0.00 0.02 0.01 32 1010.9
20190424204509 80 360 2.0 8.0 0.00 0.02 0.01 32 1010.9
20190424203003 80 360 0.0 8.0 0.00 0.02 0.01 36 1011.0
20190424201654 80 360 0.0 2.0 0.00 0.02 0.01 34 1011.1
20190424200233 80 360 3.0 6.0 0.00 0.02 0.01 35 1011.3
20190424194604 79 360 5.0 12.0 0.00 0.02 0.01 33 1011.6
20190424193132 78 360 0.0 5.0 0.00 0.02 0.01 32 1011.9
20190424191556 78 360 4.0 10.0 0.00 0.02 0.01 34 1012.0
20190424190111 78 360 1.0 8.0 0.00 0.02 0.01 35 1012.3
20190424184549 77 360 4.0 8.0 0.00 0.02 0.01 34 1012.5
20190424183124 76 360 4.0 10.0 0.00 0.02 0.01 33 1012.7
20190424181529 76 360 1.0 6.0 0.00 0.02 0.01 33 1013.2
20190424180048 76 360 3.0 8.0 0.00 0.02 0.01 32 1013.4
20190424174538 75 360 0.0 5.0 0.00 0.02 0.01 32 1013.8
20190424173012 74 360 0.0 6.0 0.00 0.02 0.01 28 1014.1
20190424171532 74 360 2.0 7.0 0.00 0.02 0.01 29 1014.3
20190424170002 73 360 4.0 7.0 0.00 0.02 0.01 22 1014.5
20190424164710 72 360 1.0 8.0 0.01 0.02 0.01 23 1014.7
20190424163201 72 360 2.0 7.0 0.01 0.02 0.01 22 1015.0
20190424161716 71 360 3.0 7.0 0.01 0.02 0.01 24 1015.1
20190424160134 71 360 2.0 7.0 0.01 0.02 0.01 21 1015.3
20190424154614 71 360 1.0 7.0 0.00 0.01 0.00 16 1015.2
20190424153141 70 360 1.0 7.0 0.00 0.01 0.00 7 1015.2
20190424151537 69 360 1.0 7.0 0.00 0.01 0.00 12 1015.4
20190424150043 68 360 0.0 8.0 0.00 0.01 0.00 4 1015.5
20190424144609 67 360 0.0 6.0 0.00 0.01 0.00 100 1015.6
20190424143022 66 360 1.0 5.0 0.00 0.01 0.00 100 1015.7
20190424141532 65 360 0.0 3.0 0.00 0.01 0.00 100 1015.7
20190424140032 64 360 0.0 0.0 0.00 0.01 0.00 100 1015.8
20190424134514 63 360 0.0 0.0 0.00 0.01 0.00 100 1015.9
20190424131750 62 360 0.0 0.0 0.00 0.01 0.00 100 1016.1
20190424130112 61 360 0.0 0.0 0.00 0.01 0.00 100 1016.2
20190424124719 60 360 0.0 0.0 0.00 0.01 0.00 100 1016.2
20190424123147 59 360 0.0 0.0 0.00 0.01 0.00 100 1016.4
20190424121632 57 360 0.0 0.0 0.00 0.01 0.00 100 1016.3